JST628 YBBN-YSSY

Flight info

Callsign JST628
Flight time 1h 8m
Altitude 38000
Route BN H91 IGDAM H652 TESAT
Aircraft A320/M-SDE3FGHIRWY/LB1

Departure

Time 2026-05-06 07:04
Airport Brisbane International Airport (YBBN)

Arrival

Time 2026-05-06 08:12
Airport Sydney Kingsford Smith International Airport (YSSY)
Time Latitude Longitude Altitude Speed Heading
2026-05-06 06:44 -27.38613 153.12076 18 ft 0 kts 305°
2026-05-06 06:55 -27.38617 153.12082 18 ft 3 kts 298°
2026-05-06 06:55 -27.38622 153.12095 19 ft 3 kts 298°
2026-05-06 06:55 -27.38633 153.12110 21 ft 2 kts 345°
2026-05-06 06:56 -27.38647 153.12111 20 ft 2 kts 16°
2026-05-06 06:56 -27.38660 153.12105 19 ft 2 kts 27°
2026-05-06 06:56 -27.38672 153.12099 19 ft 2 kts
2026-05-06 06:56 -27.38694 153.12095 18 ft 3 kts 15°
2026-05-06 06:57 -27.38718 153.12090 19 ft 3 kts 346°
2026-05-06 06:57 -27.38740 153.12100 18 ft 3 kts 324°
2026-05-06 06:57 -27.38755 153.12121 19 ft 3 kts 293°
2026-05-06 06:57 -27.38759 153.12130 19 ft 0 kts 297°
2026-05-06 06:59 -27.38757 153.12115 18 ft 5 kts 266°
2026-05-06 07:00 -27.38846 153.12140 18 ft 19 kts 140°
2026-05-06 07:00 -27.38871 153.12257 19 ft 16 kts 30°
2026-05-06 07:00 -27.38762 153.12321 18 ft 19 kts 26°
2026-05-06 07:00 -27.38636 153.12394 18 ft 22 kts 28°
2026-05-06 07:01 -27.38492 153.12477 18 ft 25 kts 27°
2026-05-06 07:01 -27.38332 153.12570 20 ft 27 kts 27°
2026-05-06 07:01 -27.38156 153.12669 20 ft 29 kts 26°
2026-05-06 07:01 -27.38004 153.12767 18 ft 17 kts 61°
2026-05-06 07:02 -27.38031 153.12895 18 ft 18 kts 116°
2026-05-06 07:02 -27.38055 153.12951 19 ft 0 kts 116°
2026-05-06 07:02 -27.38056 153.12954 19 ft 1 kts 116°
2026-05-06 07:02 -27.38062 153.12967 19 ft 5 kts 116°
2026-05-06 07:03 -27.38179 153.13025 22 ft 26 kts 201°
2026-05-06 07:03 -27.38356 153.12927 23 ft 41 kts 207°
2026-05-06 07:03 -27.38876 153.12630 22 ft 117 kts 207°
2026-05-06 07:03 -27.39752 153.12148 154 ft 150 kts 203°
2026-05-06 07:04 -27.40740 153.11593 531 ft 171 kts 205°
2026-05-06 07:04 -27.41830 153.10962 1137 ft 176 kts 202°
2026-05-06 07:04 -27.43007 153.10818 1823 ft 173 kts 162°
2026-05-06 07:04 -27.44123 153.11445 2181 ft 194 kts 149°
2026-05-06 07:05 -27.45389 153.12253 2602 ft 217 kts 149°
2026-05-06 07:05 -27.46708 153.13089 3364 ft 224 kts 150°
2026-05-06 07:05 -27.48094 153.13960 4280 ft 226 kts 150°
2026-05-06 07:05 -27.49527 153.14662 5137 ft 232 kts 168°
2026-05-06 07:06 -27.51186 153.14642 5661 ft 253 kts 192°
2026-05-06 07:06 -27.52961 153.14190 6244 ft 270 kts 193°
2026-05-06 07:06 -27.54826 153.13709 7071 ft 277 kts 193°
2026-05-06 07:06 -27.56683 153.13090 7926 ft 280 kts 201°
2026-05-06 07:07 -27.58534 153.12351 8806 ft 284 kts 201°
2026-05-06 07:07 -27.60418 153.11603 9683 ft 289 kts 201°
2026-05-06 07:07 -27.62345 153.10855 10346 ft 301 kts 200°
2026-05-06 07:07 -27.64418 153.10122 10642 ft 323 kts 198°
2026-05-06 07:08 -27.66608 153.09397 11238 ft 332 kts 198°
2026-05-06 07:08 -27.68840 153.08674 11940 ft 337 kts 198°
2026-05-06 07:08 -27.71116 153.07941 12653 ft 342 kts 198°
2026-05-06 07:08 -27.73421 153.07192 13369 ft 347 kts 199°
2026-05-06 07:09 -27.75761 153.06420 14051 ft 352 kts 199°
2026-05-06 07:09 -27.78123 153.05630 14684 ft 356 kts 199°
2026-05-06 07:09 -27.80514 153.04823 15330 ft 360 kts 200°
2026-05-06 07:09 -27.82915 153.03972 15968 ft 363 kts 202°
2026-05-06 07:10 -27.85300 153.02998 16618 ft 366 kts 204°
2026-05-06 07:10 -27.87650 153.01957 17255 ft 369 kts 206°
2026-05-06 07:10 -27.90051 153.00858 17906 ft 373 kts 206°
2026-05-06 07:10 -27.92467 152.99753 18532 ft 377 kts 206°
2026-05-06 07:11 -27.94916 152.98643 19111 ft 380 kts 206°
2026-05-06 07:11 -27.97386 152.97543 19708 ft 384 kts 206°
2026-05-06 07:11 -27.99885 152.96446 20313 ft 387 kts 206°
2026-05-06 07:11 -28.02408 152.95347 20906 ft 390 kts 206°
2026-05-06 07:12 -28.04947 152.94239 21487 ft 393 kts 207°
2026-05-06 07:12 -28.07511 152.93120 22064 ft 396 kts 207°
2026-05-06 07:12 -28.10088 152.91994 22629 ft 399 kts 207°
2026-05-06 07:12 -28.12655 152.90864 23212 ft 402 kts 208°
2026-05-06 07:13 -28.15270 152.89703 23762 ft 405 kts 208°
2026-05-06 07:13 -28.17906 152.88523 24229 ft 408 kts 208°
2026-05-06 07:13 -28.20555 152.87336 24704 ft 411 kts 208°
2026-05-06 07:13 -28.23221 152.86143 25160 ft 413 kts 209°
2026-05-06 07:14 -28.25908 152.84945 25627 ft 416 kts 209°
2026-05-06 07:14 -28.28607 152.83746 26089 ft 418 kts 209°
2026-05-06 07:14 -28.31326 152.82540 26547 ft 421 kts 209°
2026-05-06 07:14 -28.34065 152.81321 26997 ft 424 kts 209°
2026-05-06 07:15 -28.36816 152.80093 27438 ft 426 kts 209°
2026-05-06 07:15 -28.39580 152.78857 27849 ft 428 kts 209°
2026-05-06 07:15 -28.42362 152.77613 28271 ft 430 kts 209°
2026-05-06 07:15 -28.45159 152.76364 28696 ft 433 kts 210°
2026-05-06 07:16 -28.47971 152.75104 29122 ft 435 kts 210°
2026-05-06 07:16 -28.50758 152.73852 29533 ft 437 kts 210°
2026-05-06 07:16 -28.53597 152.72576 29932 ft 440 kts 210°
2026-05-06 07:16 -28.56451 152.71298 30307 ft 442 kts 210°
2026-05-06 07:17 -28.59327 152.70012 30679 ft 445 kts 210°
2026-05-06 07:17 -28.62213 152.68720 31057 ft 446 kts 210°
2026-05-06 07:17 -28.65104 152.67425 31415 ft 447 kts 210°
2026-05-06 07:17 -28.68002 152.66126 31777 ft 448 kts 210°
2026-05-06 07:18 -28.70901 152.64828 32250 ft 446 kts 211°
2026-05-06 07:18 -28.73749 152.63554 32747 ft 444 kts 211°
2026-05-06 07:18 -28.76658 152.62249 33263 ft 442 kts 211°
2026-05-06 07:18 -28.79474 152.60982 33784 ft 440 kts 212°
2026-05-06 07:19 -28.82309 152.59706 34284 ft 437 kts 212°
2026-05-06 07:19 -28.85115 152.58397 34720 ft 431 kts 216°
2026-05-06 07:19 -28.87765 152.56839 35084 ft 426 kts 218°
2026-05-06 07:19 -28.90387 152.55277 35476 ft 425 kts 219°
2026-05-06 07:20 -28.93002 152.53723 35862 ft 423 kts 219°
2026-05-06 07:20 -28.95617 152.52169 36263 ft 422 kts 219°
2026-05-06 07:20 -28.98214 152.50625 36641 ft 420 kts 220°
2026-05-06 07:20 -29.00801 152.49087 36978 ft 418 kts 220°
2026-05-06 07:21 -29.03375 152.47553 37333 ft 417 kts 220°
2026-05-06 07:21 -29.05939 152.46020 37733 ft 415 kts 221°
2026-05-06 07:21 -29.08496 152.44491 37994 ft 416 kts 221°
2026-05-06 07:22 -29.13618 152.41435 38036 ft 414 kts 221°
2026-05-06 07:22 -29.18724 152.38378 38038 ft 413 kts 221°
2026-05-06 07:23 -29.23816 152.35323 38043 ft 413 kts 221°
2026-05-06 07:23 -29.28911 152.32272 38078 ft 413 kts 220°
2026-05-06 07:24 -29.34019 152.29221 38039 ft 414 kts 220°
2026-05-06 07:24 -29.39100 152.26173 38047 ft 416 kts 220°
2026-05-06 07:25 -29.44225 152.23082 38045 ft 416 kts 220°
2026-05-06 07:25 -29.49333 152.20011 38036 ft 414 kts 220°
2026-05-06 07:26 -29.54468 152.16919 38080 ft 417 kts 220°
2026-05-06 07:26 -29.59609 152.13817 38070 ft 418 kts 220°
2026-05-06 07:27 -29.64754 152.10696 38065 ft 418 kts 220°
2026-05-06 07:27 -29.69974 152.07679 38068 ft 429 kts 213°
2026-05-06 07:27 -29.72901 152.06716 38066 ft 443 kts 205°
2026-05-06 07:28 -29.75907 152.05939 38071 ft 444 kts 205°
2026-05-06 07:28 -29.84937 152.03611 38058 ft 443 kts 205°
2026-05-06 07:29 -29.90951 152.02041 38057 ft 443 kts 205°
2026-05-06 07:29 -29.96973 152.00462 38058 ft 444 kts 205°
2026-05-06 07:30 -30.02999 151.98878 38074 ft 444 kts 204°
2026-05-06 07:30 -30.08989 151.97303 38067 ft 444 kts 204°
2026-05-06 07:31 -30.15022 151.95726 38064 ft 445 kts 204°
2026-05-06 07:31 -30.21057 151.94145 38060 ft 444 kts 204°
2026-05-06 07:32 -30.27082 151.92556 38067 ft 445 kts 205°
2026-05-06 07:32 -30.33058 151.90818 38058 ft 433 kts 212°
2026-05-06 07:33 -30.38614 151.88249 38054 ft 430 kts 214°
2026-05-06 07:33 -30.44164 151.85660 38066 ft 430 kts 214°
2026-05-06 07:34 -30.49725 151.83069 38068 ft 431 kts 213°
2026-05-06 07:34 -30.55286 151.80470 38053 ft 431 kts 213°
2026-05-06 07:35 -30.60851 151.77875 38048 ft 431 kts 213°
2026-05-06 07:35 -30.66385 151.75295 38044 ft 431 kts 213°
2026-05-06 07:36 -30.71955 151.72693 38060 ft 432 kts 213°
2026-05-06 07:36 -30.77528 151.70080 38048 ft 432 kts 213°
2026-05-06 07:37 -30.83104 151.67466 38046 ft 432 kts 213°
2026-05-06 07:37 -30.88686 151.64853 38046 ft 432 kts 213°
2026-05-06 07:38 -30.94263 151.62232 38075 ft 432 kts 213°
2026-05-06 07:38 -30.99846 151.59601 38061 ft 433 kts 213°
2026-05-06 07:39 -31.05431 151.56968 38054 ft 433 kts 213°
2026-05-06 07:39 -31.10982 151.54345 38052 ft 433 kts 213°
2026-05-06 07:40 -31.16570 151.51702 38065 ft 433 kts 212°
2026-05-06 07:40 -31.22161 151.49064 38056 ft 433 kts 212°
2026-05-06 07:41 -31.27748 151.46415 38050 ft 433 kts 212°
2026-05-06 07:41 -31.33342 151.43755 38047 ft 433 kts 212°
2026-05-06 07:42 -31.38927 151.41102 38061 ft 434 kts 212°
2026-05-06 07:42 -31.44561 151.38529 38051 ft 435 kts 211°
2026-05-06 07:43 -31.49279 151.36457 38045 ft 435 kts 210°
2026-05-06 07:43 -31.54979 151.33946 37805 ft 442 kts 210°
2026-05-06 07:44 -31.58807 151.32239 37490 ft 444 kts 210°
2026-05-06 07:44 -31.60757 151.31366 37317 ft 442 kts 210°
2026-05-06 07:44 -31.63579 151.30104 36931 ft 437 kts 210°
2026-05-06 07:44 -31.66411 151.28838 36504 ft 434 kts 210°
2026-05-06 07:45 -31.69219 151.27578 36061 ft 431 kts 210°
2026-05-06 07:45 -31.72015 151.26321 35618 ft 428 kts 210°
2026-05-06 07:45 -31.74784 151.25076 35171 ft 425 kts 210°
2026-05-06 07:45 -31.77546 151.23832 34712 ft 423 kts 210°
2026-05-06 07:46 -31.80297 151.22592 34242 ft 423 kts 210°
2026-05-06 07:46 -31.83037 151.21357 33733 ft 421 kts 210°
2026-05-06 07:46 -31.85762 151.20127 33269 ft 417 kts 210°
2026-05-06 07:46 -31.88469 151.18907 32805 ft 414 kts 210°
2026-05-06 07:47 -31.91150 151.17701 32352 ft 411 kts 209°
2026-05-06 07:47 -31.93809 151.16504 31922 ft 407 kts 209°
2026-05-06 07:47 -31.96416 151.15332 31495 ft 404 kts 209°
2026-05-06 07:47 -31.99007 151.14175 31087 ft 401 kts 209°
2026-05-06 07:48 -32.01612 151.13011 30684 ft 399 kts 210°
2026-05-06 07:48 -32.04206 151.11847 30276 ft 396 kts 210°
2026-05-06 07:48 -32.06774 151.10691 29849 ft 394 kts 210°
2026-05-06 07:48 -32.09321 151.09547 29454 ft 390 kts 209°
2026-05-06 07:49 -32.11844 151.08418 29100 ft 385 kts 209°
2026-05-06 07:49 -32.14340 151.07300 28737 ft 382 kts 209°
2026-05-06 07:49 -32.16816 151.06185 28380 ft 379 kts 209°
2026-05-06 07:49 -32.19270 151.05078 28027 ft 376 kts 209°
2026-05-06 07:50 -32.21713 151.03977 27693 ft 374 kts 209°
2026-05-06 07:50 -32.24134 151.02884 27315 ft 371 kts 208°
2026-05-06 07:50 -32.26543 151.01798 26958 ft 369 kts 208°
2026-05-06 07:50 -32.28932 151.00723 26604 ft 366 kts 208°
2026-05-06 07:51 -32.31304 150.99654 26240 ft 363 kts 208°
2026-05-06 07:51 -32.33652 150.98592 25879 ft 361 kts 208°
2026-05-06 07:51 -32.35987 150.97533 25519 ft 358 kts 208°
2026-05-06 07:51 -32.38306 150.96481 25146 ft 355 kts 207°
2026-05-06 07:52 -32.40608 150.95442 24783 ft 353 kts 207°
2026-05-06 07:52 -32.42895 150.94408 24414 ft 351 kts 207°
2026-05-06 07:52 -32.45146 150.93388 24048 ft 349 kts 207°
2026-05-06 07:52 -32.47433 150.92398 23676 ft 351 kts 202°
2026-05-06 07:53 -32.49832 150.91806 23255 ft 355 kts 192°
2026-05-06 07:53 -32.52307 150.91723 22879 ft 358 kts 181°
2026-05-06 07:53 -32.54780 150.92099 22498 ft 358 kts 176°
2026-05-06 07:53 -32.57231 150.92542 22117 ft 355 kts 176°
2026-05-06 07:54 -32.59669 150.92980 21740 ft 353 kts 176°
2026-05-06 07:54 -32.62086 150.93414 21361 ft 350 kts 176°
2026-05-06 07:54 -32.64492 150.93844 20986 ft 348 kts 175°
2026-05-06 07:54 -32.66885 150.94268 20618 ft 346 kts 175°
2026-05-06 07:55 -32.69265 150.94686 20244 ft 345 kts 175°
2026-05-06 07:55 -32.71632 150.95104 19872 ft 343 kts 175°
2026-05-06 07:55 -32.73957 150.95516 19514 ft 342 kts 175°
2026-05-06 07:55 -32.76300 150.95929 19151 ft 340 kts 175°
2026-05-06 07:56 -32.78638 150.96345 18781 ft 339 kts 174°
2026-05-06 07:56 -32.80965 150.96758 18418 ft 338 kts 174°
2026-05-06 07:56 -32.83293 150.97170 18016 ft 336 kts 174°
2026-05-06 07:56 -32.85600 150.97577 17648 ft 334 kts 174°
2026-05-06 07:57 -32.87889 150.97984 17283 ft 331 kts 174°
2026-05-06 07:57 -32.90157 150.98391 16924 ft 329 kts 174°
2026-05-06 07:57 -32.92417 150.98798 16572 ft 327 kts 174°
2026-05-06 07:57 -32.94666 150.99203 16208 ft 326 kts 174°
2026-05-06 07:58 -32.96903 150.99600 15858 ft 324 kts 174°
2026-05-06 07:58 -32.99133 150.99996 15503 ft 323 kts 174°
2026-05-06 07:58 -33.01349 151.00391 15147 ft 322 kts 174°
2026-05-06 07:58 -33.03561 151.00785 14787 ft 321 kts 174°
2026-05-06 07:59 -33.05772 151.01181 14432 ft 320 kts 174°
2026-05-06 07:59 -33.07975 151.01578 14076 ft 320 kts 174°
2026-05-06 07:59 -33.10170 151.01973 13700 ft 319 kts 174°
2026-05-06 07:59 -33.12362 151.02366 13330 ft 318 kts 174°
2026-05-06 08:00 -33.14545 151.02756 12964 ft 316 kts 174°
2026-05-06 08:00 -33.16712 151.03140 12618 ft 314 kts 174°
2026-05-06 08:00 -33.18866 151.03521 12256 ft 313 kts 174°
2026-05-06 08:00 -33.21020 151.03904 11899 ft 312 kts 174°
2026-05-06 08:01 -33.23163 151.04289 11541 ft 311 kts 174°
2026-05-06 08:01 -33.25297 151.04681 11177 ft 310 kts 174°
2026-05-06 08:01 -33.27428 151.05088 10808 ft 310 kts 174°
2026-05-06 08:01 -33.29551 151.05498 10451 ft 309 kts 174°
2026-05-06 08:02 -33.31648 151.05904 10079 ft 309 kts 174°
2026-05-06 08:02 -33.33770 151.06315 9758 ft 306 kts 174°
2026-05-06 08:02 -33.35866 151.06721 9329 ft 307 kts 174°
2026-05-06 08:02 -33.37955 151.07125 9047 ft 302 kts 173°
2026-05-06 08:03 -33.40033 151.07525 8710 ft 300 kts 174°
2026-05-06 08:03 -33.42081 151.07919 8399 ft 297 kts 173°
2026-05-06 08:03 -33.44123 151.08312 8063 ft 296 kts 173°
2026-05-06 08:03 -33.46154 151.08701 7737 ft 294 kts 173°
2026-05-06 08:04 -33.48165 151.09084 7402 ft 292 kts 173°
2026-05-06 08:04 -33.50168 151.09468 7079 ft 290 kts 173°
2026-05-06 08:04 -33.52150 151.09850 6667 ft 286 kts 173°
2026-05-06 08:04 -33.54080 151.10225 6062 ft 283 kts 173°
2026-05-06 08:05 -33.55994 151.10598 5660 ft 273 kts 173°
2026-05-06 08:05 -33.57873 151.10963 5308 ft 273 kts 173°
2026-05-06 08:05 -33.59753 151.11326 4968 ft 274 kts 173°
2026-05-06 08:05 -33.61636 151.11687 4615 ft 274 kts 173°
2026-05-06 08:06 -33.63505 151.12047 4432 ft 267 kts 173°
2026-05-06 08:06 -33.65305 151.12399 4339 ft 257 kts 173°
2026-05-06 08:06 -33.67041 151.12741 4227 ft 247 kts 173°
2026-05-06 08:06 -33.68704 151.13071 4118 ft 236 kts 173°
2026-05-06 08:07 -33.70268 151.13337 4012 ft 224 kts 182°
2026-05-06 08:07 -33.71761 151.13094 3923 ft 211 kts 193°
2026-05-06 08:07 -33.73157 151.12770 3860 ft 197 kts 193°
2026-05-06 08:07 -33.74478 151.12518 3696 ft 190 kts 181°
2026-05-06 08:08 -33.75785 151.12738 3441 ft 188 kts 171°
2026-05-06 08:08 -33.77037 151.13049 3199 ft 178 kts 169°
2026-05-06 08:08 -33.78179 151.13342 2984 ft 159 kts 169°
2026-05-06 08:08 -33.79232 151.13614 2775 ft 152 kts 168°
2026-05-06 08:09 -33.80254 151.13877 2573 ft 149 kts 168°
2026-05-06 08:09 -33.81265 151.14138 2379 ft 147 kts 168°
2026-05-06 08:09 -33.82262 151.14396 2180 ft 146 kts 168°
2026-05-06 08:09 -33.83256 151.14653 1990 ft 146 kts 167°
2026-05-06 08:10 -33.84235 151.14906 1804 ft 145 kts 166°
2026-05-06 08:10 -33.85231 151.15163 1605 ft 144 kts 166°
2026-05-06 08:10 -33.86201 151.15415 1408 ft 145 kts 165°
2026-05-06 08:10 -33.87182 151.15668 1212 ft 144 kts 165°
2026-05-06 08:11 -33.88158 151.15921 1021 ft 143 kts 166°
2026-05-06 08:11 -33.89129 151.16172 830 ft 142 kts 165°
2026-05-06 08:11 -33.90093 151.16422 642 ft 142 kts 164°
2026-05-06 08:11 -33.91056 151.16671 456 ft 141 kts 165°
2026-05-06 08:12 -33.92002 151.16916 274 ft 138 kts 164°
2026-05-06 08:12 -33.92936 151.17158 82 ft 137 kts 165°
2026-05-06 08:12 -33.93789 151.17404 17 ft 89 kts 166°
2026-05-06 08:12 -33.94162 151.17478 23 ft 48 kts 168°
2026-05-06 08:13 -33.94399 151.17611 26 ft 27 kts 142°
2026-05-06 08:13 -33.94508 151.17714 25 ft 17 kts 121°
2026-05-06 08:13 -33.94484 151.17783 23 ft 5 kts 349°
2026-05-06 08:13 -33.94443 151.17767 25 ft 7 kts 342°
2026-05-06 08:14 -33.94383 151.17747 23 ft 11 kts 347°
2026-05-06 08:14 -33.94286 151.17721 22 ft 18 kts 347°
2026-05-06 08:14 -33.94154 151.17680 25 ft 21 kts 346°
2026-05-06 08:14 -33.93998 151.17635 21 ft 25 kts 347°
2026-05-06 08:15 -33.93815 151.17588 18 ft 29 kts 348°
2026-05-06 08:15 -33.93609 151.17534 17 ft 32 kts 348°
2026-05-06 08:15 -33.93403 151.17506 21 ft 28 kts 355°
2026-05-06 08:15 -33.93204 151.17459 21 ft 30 kts 347°
2026-05-06 08:16 -33.93083 151.17475 27 ft 12 kts 82°
2026-05-06 08:16 -33.93133 151.17528 30 ft 12 kts 163°
2026-05-06 08:16 -33.93262 151.17561 30 ft 22 kts 168°
2026-05-06 08:16 -33.93422 151.17592 30 ft 25 kts 183°
2026-05-06 08:17 -33.93592 151.17614 28 ft 16 kts 170°
2026-05-06 08:17 -33.93659 151.17701 30 ft 16 kts 99°
2026-05-06 08:17 -33.93626 151.17816 31 ft 16 kts 12°
2026-05-06 08:17 -33.93510 151.17841 31 ft 7 kts 10°
2026-05-06 08:18 -33.93490 151.17801 31 ft 7 kts 280°
2026-05-06 08:18 -33.93487 151.17779 31 ft 0 kts 279°